{"data":{"norad_id":55107,"intl_designator":"2023-001DC","name":"AAC-AIS-SAT1","alt_names":[],"object_type":"PAYLOAD","status":"ACTIVE","operator":null,"country":"UK","launch_date":"2023-01-03","launch_site_code":"AFETR","launch_vehicle":null,"mission":null,"orbit_class":"UNKNOWN","rcs_meters":null,"size_class":null,"mass_kg":null,"dimensions":null,"purposes":[],"wikipedia_slug":null,"has_3d_model":false,"image_url":null,"decayed_at":null,"tle_current":{"epoch":"2026-09-21T23:35:33.124128Z","epoch_age_seconds":40151,"freshness":"FRESH","line1":"1 55107U 23001DC  26264.98302227  .00002480  00000+0  24527-3 0  9993","line2":"2 55107  97.9134 342.2708 0008223 326.0645  34.0047 14.92812717192721","mean_motion":14.92812717,"eccentricity":0.0008223,"inclination_deg":97.9134,"raan_deg":342.2708,"arg_perigee_deg":326.0645,"mean_anomaly_deg":34.0047,"bstar":0.00024527,"rev_number":19272,"period_min":96.462200757096,"perigee_km":583.44094398019,"apogee_km":594.89937733661,"semimajor_km":6967.3071606584,"source":"CELESTRAK","updated_at":"2026-09-22T09:00:25.271456Z"}}}